Regional Weather Roundup
Issued by NWS Cleveland, OH

Home | Current Version | Previous Version | Text Only | Print | Product List | Glossary Off
Versions: 1 2 3 4 5 6 7 8 9 10 11 12 13 14 15 16 17 18 19 20 21 22 23 24 25 26 27 28 29 30 31 32 33 34 35 36 37 38 39 40 41 42 43 44 45 46 47 48 49 50

000
ASUS41 KCLE 280702
RWRCLE
OHIO REGIONAL WEATHER ROUNDUP
NATIONAL WEATHER SERVICE CLEVELAND, OH
300 AM EDT SUN MAY 28 2017

NOTE: "FAIR" INDICATES FEW OR NO CLOUDS BELOW 12,000 FEET WITH NO
SIGNIFICANT WEATHER AND/OR OBSTRUCTIONS TO VISIBILITY.

OHZ001>008-015>018-024>027-034-035-043-044-280800-
   NORTHWEST OHIO

CITY           SKY/WX    TMP DP  RH WIND       PRES   REMARKS
DEFIANCE       CLOUDY    57  54  89 CALM      29.83R
FINDLAY        CLOUDY    63  52  67 E7        29.81R
TOLEDO EXPRESS CLOUDY    58  54  86 N3        29.82S
TOLEDO EXEC    CLOUDY    62  54  74 E5        29.83F
LIMA           MOCLDY    62  58  86 E6        29.81S
$$

OHZ009>014-019>023-028>033-038-089-280800-
   NORTHEAST OHIO

CITY           SKY/WX    TMP DP  RH WIND       PRES   REMARKS
CLE-HOPKINS    MOCLDY    63  51  65 CALM      29.85F
CLE-LAKEFRONT  MOCLDY    59  50  72 SW5       29.83F
CUY CO. ARPT   NOT AVBL
LORAIN-ELYRIA  CLOUDY    60  49  66 SE3       29.84F
ASHTABULA      CLOUDY    51  51 100 CALM      29.87F
AKRON-CANTON   CLOUDY    59  51  75 E7        29.83F
WOOSTER        CLOUDY    58  53  84 CALM      29.84F
MANSFIELD      CLEAR     60  54  80 SE9       29.83F
YOUNGSTOWN     CLOUDY    53  51  93 E6        29.86F
$$

OHZ042-051>053-060>062-070>072-077>081-280800-
  SOUTHWEST OHIO

CITY           SKY/WX    TMP DP  RH WIND       PRES   REMARKS
CINC-COVINGTON CLOUDY    65  61  87 SW3       29.80S
CINC-LUNKEN    CLOUDY    65  63  93 S5        29.81R
HAMILTON       CLOUDY    68  63  84 W5        29.79F
DAYTON         CLOUDY    65  63  93 CALM      29.81R
WRIGHT-PAT AFB CLOUDY    67  67 100 CALM      29.79S
DAYTON GENERAL CLOUDY    68  64  87 W5        29.79S
WILMINGTON     PTCLDY    65  64  97 SW7       29.79F
$$

OHZ036-037-039>041-045>050-054>059-063>069-073>076-082>088-280800-
  CENTRAL AND SOUTHEAST OHIO

CITY           SKY/WX    TMP DP  RH WIND       PRES   REMARKS
COLUMBUS       CLOUDY    67  65  93 E8        29.78F
OSU AIRPORT    PTCLDY    65  64  97 NE3       29.80F
BOLTON FIELD   CLOUDY    67  65  95 CALM      29.81R
RICKENBACK AFB CLOUDY    66  66 100 CALM      29.78F
NEWARK         PTCLDY    65  62  90 CALM      29.80F
MARION         CLEAR     61  57  87 E3        29.82F
LANCASTER      CLOUDY    68  64  87 E3        29.80F
ZANESVILLE     CLOUDY    67  63  87 E3        29.81F
NEW PHILLY     NOT AVBL
$$



USA.gov is the U.S. government's official web portal to all federal, state and local government web resources and services.